Weather History for KHSE - November, 2010

Change the Weather History Date:

Wednesday, November 24, 2010

  Actual Average Record
Temperature  
Mean Temperature 56 °F 55 °F  
Max Temperature 67 °F 62 °F 77 °F (1983)
Min Temperature 45 °F 49 °F 29 °F (1989)
Degree Days  
Heating Degree Days 9 10  
Month to date heating degree days 196 176  
Since 1 July heating degree days 229 251  
Cooling Degree Days 0 0  
Month to date cooling degree days 1 22  
Year to date cooling degree days 1848 1712  
Growing Degree Days 5 (Base 50)    
Moisture  
Dew Point 44 °F    
Average Humidity 63    
Maximum Humidity 87    
Minimum Humidity 39    
Precipitation  
Precipitation 0.00 in 0.15 in 1.11 in (1975)
Month to date precipitation 2.34 4.06  
Year to date precipitation 57.91 52.88  
Snow  
Snow 0.00 in - - ()
Month to date snowfall 0.0  
Since 1 July snowfall 0.0  
Snow Depth 0.00 in    
Sea Level Pressure  
Sea Level Pressure 30.17 in    
Wind  
Wind Speed 8 mph (NNE)    
Max Wind Speed 15 mph    
Max Gust Speed 28 mph    
Visibility 10 miles    
Events      
T = Trace of Precipitation, MM = Missing Value Source: NWS Daily Summary

Daily Weather History Graph

Daily Weather History Graph

Search for Another Location

Airport or City:

Trip Planner

Search our weather history database for the weather conditions in past years. The results will help you decide how hot, cold, wet, or windy it might be!

Date:

Astronomy

Nov. 24, 2010 Rise Set
Actual Time 6:46 AM EST 4:51 PM EST
Civil Twilight 6:18 AM EST 5:19 PM EST
Nautical Twilight 5:47 AM EST 5:50 PM EST
Astronomical Twilight 5:17 AM EST 6:20 PM EST
Moon 7:38 PM EST (11/24) 9:29 AM EST (11/24)
Length of Visible Light 11h 00m
Length of Day
10h 05m
Waning Gibbous, 90% of the Moon is Illuminated
Nov 24
Waning Gibbous
Nov 28
Last Quarter
Dec 5
New
Dec 13
First Quarter
Dec 21
Full

Hourly Weather History & Observations

Time (EST) Temp. Windchill Dew Point Humidity Pressure Visibility Wind Dir Wind Speed Gust Speed Precip Events Conditions
12:51 AM 64.0 °F - 60.1 °F 87% 30.03 in 10.0 mi WNW 8.1 mph 18.4 mph N/A   Overcast
1:51 AM 63.0 °F - 57.9 °F 84% 30.05 in 10.0 mi NW 6.9 mph - N/A   Overcast
2:51 AM 63.0 °F - 57.0 °F 81% 30.06 in 10.0 mi NW 10.4 mph - N/A   Overcast
3:51 AM 62.1 °F - 54.0 °F 75% 30.07 in 10.0 mi NNW 8.1 mph - N/A   Mostly Cloudy
4:51 AM 60.1 °F - 53.1 °F 78% 30.09 in 10.0 mi Variable 3.5 mph - N/A   Mostly Cloudy
5:51 AM 59.0 °F - 52.0 °F 78% 30.11 in 10.0 mi Variable 4.6 mph - N/A   Clear
6:51 AM 57.9 °F - 51.1 °F 78% 30.13 in 10.0 mi North 5.8 mph - N/A   Clear
7:51 AM 60.1 °F - 43.0 °F 53% 30.16 in 10.0 mi NNE 10.4 mph 17.3 mph N/A   Clear
8:51 AM 60.1 °F - 37.9 °F 44% 30.19 in 10.0 mi NNE 11.5 mph 21.9 mph N/A   Clear
9:51 AM 61.0 °F - 36.0 °F 39% 30.21 in 10.0 mi NNE 13.8 mph 24.2 mph N/A   Clear
10:51 AM 60.1 °F - 39.0 °F 46% 30.20 in 10.0 mi NNE 9.2 mph 24.2 mph N/A   Clear
11:51 AM 60.1 °F - 39.0 °F 46% 30.20 in 10.0 mi NNE 9.2 mph 23.0 mph N/A   Clear
12:51 PM 59.0 °F - 41.0 °F 51% 30.19 in 10.0 mi NNE 11.5 mph 20.7 mph N/A   Clear
1:51 PM 57.9 °F - 39.0 °F 49% 30.19 in 10.0 mi NNE 9.2 mph 20.7 mph N/A   Clear
2:51 PM 55.9 °F - 39.9 °F 55% 30.19 in 10.0 mi NNE 11.5 mph 21.9 mph N/A   Clear
3:51 PM 54.0 °F - 39.0 °F 57% 30.20 in 10.0 mi NE 10.4 mph 23.0 mph N/A   Clear
4:51 PM 52.0 °F - 39.0 °F 61% 30.22 in 10.0 mi NNE 10.4 mph 18.4 mph N/A   Clear
5:51 PM 51.1 °F - 39.0 °F 63% 30.25 in 10.0 mi NE 9.2 mph 17.3 mph N/A   Clear
6:51 PM 50.0 °F - 39.0 °F 66% 30.24 in 10.0 mi NE 9.2 mph - N/A   Clear
7:51 PM 50.0 °F - 39.0 °F 66% 30.25 in 10.0 mi NE 6.9 mph - N/A   Clear
8:51 PM 48.9 °F - 39.0 °F 69% 30.24 in 10.0 mi NE 6.9 mph - N/A   Clear
9:51 PM 48.9 °F - 39.0 °F 69% 30.24 in 10.0 mi ENE 4.6 mph - N/A   Clear
10:51 PM 46.9 °F - 39.9 °F 77% 30.22 in 10.0 mi East 3.5 mph - N/A   Clear
11:51 PM 46.0 °F 44.8 °F 39.9 °F 79% 30.23 in 10.0 mi ENE 3.5 mph - N/A   Clear